{"data":{"norad_id":62746,"intl_designator":"2025-014M","name":"STARLINK-32780","alt_names":[],"object_type":"PAYLOAD","status":"ACTIVE","operator":null,"country":"US","launch_date":"2025-01-21","launch_site_code":"AFETR","launch_vehicle":null,"mission":null,"orbit_class":"UNKNOWN","rcs_meters":null,"size_class":null,"mass_kg":null,"dimensions":null,"purposes":["comms"],"wikipedia_slug":null,"has_3d_model":false,"image_url":null,"decayed_at":null,"tle_current":{"epoch":"2026-05-25T04:40:58.399968Z","epoch_age_seconds":68914,"freshness":"FRESH","line1":"1 62746U 25014M   26145.19512037  .00018068  00000+0  66414-3 0  9999","line2":"2 62746  43.0011  82.6949 0001133 272.2061  87.8660 15.27596805 74950","mean_motion":15.27596805,"eccentricity":0.0001133,"inclination_deg":43.0011,"raan_deg":82.6949,"arg_perigee_deg":272.2061,"mean_anomaly_deg":87.866,"bstar":0.00066414,"rev_number":7495,"period_min":94.265711690854,"perigee_km":482.22140960194,"apogee_km":483.77614296885,"semimajor_km":6861.1357762854,"source":"CELESTRAK","updated_at":"2026-05-25T13:38:19.740442Z"}}}